EW0641 Weather Reports


Display with metric or nautical units.
time (UTC)temp
F
wind
direction
speed
MPH
gust
MPH
rain 1hr
in
rain 24hr
in
rain mn
in
humidity
%
barometer
mb
20260509234521 69 341 0.0 0.0 0.00 0.03 0.03 38 1003.1
20260509233025 70 337 0.0 0.0 0.00 0.03 0.03 40 1003.0
20260509231519 70 306 0.0 0.0 0.00 0.03 0.03 39 1002.7
20260509230020 70 290 0.0 0.0 0.00 0.03 0.03 37 1002.6
20260509224521 71 19 0.0 0.0 0.00 0.03 0.03 38 1002.3
20260509223018 71 299 0.0 0.0 0.00 0.03 0.03 39 1002.1
20260509221517 71 321 0.0 0.0 0.00 0.03 0.03 40 1001.7
20260509220017 71 301 0.0 0.0 0.00 0.03 0.03 47 1001.6
20260509214514 71 297 0.0 0.0 0.00 0.03 0.03 47 1001.5
20260509213012 70 319 0.0 0.0 0.00 0.03 0.03 51 1001.5
20260509211509 69 277 0.0 0.0 0.00 0.03 0.03 53 1001.6
20260509210008 68 325 0.0 0.0 0.02 0.03 0.03 58 1001.4
20260509204507 65 355 0.0 0.0 0.03 0.03 0.03 72 1001.5
20260509203007 63 355 0.0 0.0 0.03 0.03 0.03 77 1001.6
20260509201506 61 5 0.0 0.0 0.03 0.03 0.03 82 1001.8
20260509200005 61 320 0.0 0.0 0.00 0.00 0.00 78 1002.3
20260509194505 64 355 0.0 0.0 0.00 0.00 0.00 68 1002.4
20260509193005 65 264 0.0 0.0 0.00 0.00 0.00 67 1001.6
20260509191504 67 293 0.0 0.0 0.00 0.00 0.00 66 1001.7
20260509190005 68 223 0.0 0.0 0.00 0.00 0.00 61 1001.3
20260509184505 69 237 0.0 0.0 0.00 0.00 0.00 61 1001.5
20260509183100 69 271 0.0 0.0 0.00 0.00 0.00 61 1001.6
20260509181601 68 250 0.0 0.0 0.00 0.00 0.00 63 1001.7
20260509180104 67 252 0.0 0.0 0.00 0.00 0.00 66 1002.0
20260509174552 66 223 0.0 0.0 0.00 0.00 0.00 67 1002.1
20260509173100 66 245 0.0 0.0 0.00 0.00 0.00 70 1002.2
20260509171547 65 230 0.0 0.0 0.00 0.00 0.00 69 1002.3
20260509170046 63 236 0.0 0.0 0.00 0.00 0.00 73 1002.4
20260509164554 63 216 0.0 0.0 0.00 0.00 0.00 74 1002.7
20260509163043 63 207 0.0 0.0 0.00 0.00 0.00 73 1002.7
20260509161545 64 243 0.0 0.0 0.00 0.00 0.00 74 1002.7
20260509160040 64 273 0.0 0.0 0.00 0.00 0.00 75 1002.9
20260509154538 63 211 0.0 0.0 0.00 0.00 0.00 75 1003.1
20260509153034 63 235 0.0 0.0 0.00 0.00 0.00 78 1003.2
20260509151532 62 230 0.0 0.0 0.00 0.00 0.00 78 1003.3
20260509150030 62 236 0.0 0.0 0.00 0.00 0.00 78 1003.5
20260509144533 62 247 0.0 0.0 0.00 0.00 0.00 77 1003.8
20260509143026 61 241 0.0 0.0 0.00 0.00 0.00 77 1003.9
20260509141523 61 225 0.0 0.0 0.00 0.00 0.00 80 1004.0
20260509140019 59 267 0.0 0.0 0.00 0.00 0.00 83 1004.3
20260509134518 58 202 0.0 0.0 0.00 0.00 0.00 86 1004.4
20260509133014 57 245 0.0 0.0 0.00 0.00 0.00 88 1004.6
20260509131509 56 234 0.0 0.0 0.00 0.00 0.00 91 1004.7
20260509130008 54 221 0.0 0.0 0.00 0.00 0.00 92 1004.7
20260509124506 53 220 0.0 0.0 0.00 0.00 0.00 93 1004.8
20260509123008 53 236 0.0 0.0 0.00 0.00 0.00 93 1004.8
20260509121506 52 221 0.0 0.0 0.00 0.00 0.00 93 1004.9
20260509120005 53 217 0.0 0.0 0.00 0.00 0.00 93 1005.3
20260509114505 52 221 0.0 0.0 0.00 0.00 0.00 93 1005.2
20260509113005 52 211 0.0 0.0 0.00 0.00 0.00 93 1005.3
20260509111505 52 216 0.0 0.0 0.00 0.00 0.00 93 1005.2
20260509110002 52 217 0.0 0.0 0.00 0.00 0.00 93 1005.1
20260509104502 52 215 0.0 0.0 0.00 0.00 0.00 93 1005.2
20260509103002 52 211 0.0 0.0 0.00 0.00 0.00 93 1005.0
20260509101502 51 215 0.0 0.0 0.00 0.00 0.00 93 1004.8
20260509100059 51 220 0.0 0.0 0.00 0.00 0.00 92 1004.7
20260509094559 52 219 0.0 0.0 0.00 0.00 0.00 92 1004.9
20260509093058 52 219 0.0 0.0 0.00 0.00 0.00 92 1004.8
20260509091606 52 219 0.0 0.0 0.00 0.00 0.00 92 1005.1
20260509090054 52 219 0.0 0.0 0.00 0.00 0.00 92 1005.3
20260509084554 52 218 0.0 0.0 0.00 0.00 0.00 91 1005.3
20260509083052 52 219 0.0 0.0 0.00 0.00 0.00 91 1005.4
20260509081553 52 219 0.0 0.0 0.00 0.00 0.00 90 1005.5
20260509080051 52 219 0.0 0.0 0.00 0.00 0.00 90 1005.4
20260509074553 52 219 0.0 0.0 0.00 0.00 0.00 90 1005.4
20260509073049 52 219 0.0 0.0 0.00 0.00 0.00 90 1005.6
20260509071550 52 214 0.0 0.0 0.00 0.00 0.00 90 1005.7
20260509070044 52 215 0.0 0.0 0.00 0.00 0.00 90 1005.8
20260509064550 51 217 0.0 0.0 0.00 0.00 0.00 89 1006.0
20260509063043 52 217 0.0 0.0 0.00 0.00 0.00 89 1006.0
20260509061546 52 217 0.0 0.0 0.00 0.00 0.00 88 1006.1
20260509060037 53 217 0.0 0.0 0.00 0.00 0.00 87 1006.3
20260509054542 53 217 0.0 0.0 0.00 0.00 0.00 87 1006.4
20260509053037 54 217 0.0 0.0 0.00 0.00 0.00 86 1006.6
20260509051531 54 217 0.0 0.0 0.00 0.00 0.00 86 1006.6
20260509050048 54 217 0.0 0.0 0.00 0.00 0.00 86 1006.7
20260509044527 54 217 0.0 0.0 0.00 0.00 0.00 85 1006.9
20260509043026 54 217 0.0 0.0 0.00 0.00 0.00 85 1007.0
20260509041525 55 217 0.0 0.0 0.00 0.00 0.00 84 1007.1
20260509040023 55 217 0.0 0.0 0.00 0.00 0.00 83 1007.1
20260509034521 55 217 0.0 0.0 0.00 0.00 0.00 82 1007.1
20260509033022 55 216 0.0 0.0 0.00 0.00 0.00 82 1007.2
20260509031524 55 216 0.0 0.0 0.00 0.00 0.00 82 1007.3
20260509030032 55 216 0.0 0.0 0.00 0.00 0.00 82 1007.3
20260509024520 55 216 0.0 0.0 0.00 0.00 0.00 83 1007.5
20260509023027 55 214 0.0 0.0 0.00 0.00 0.00 83 1007.5
20260509021520 56 212 0.0 0.0 0.00 0.00 0.00 84 1007.3
20260509020019 56 219 0.0 0.0 0.00 0.00 0.00 83 1007.3
20260509014518 56 202 0.0 0.0 0.00 0.00 0.00 81 1007.1
20260509013017 56 185 0.0 0.0 0.00 0.00 0.00 81 1007.0
20260509011518 57 198 0.0 0.0 0.00 0.00 0.00 80 1006.9
20260509010016 57 192 0.0 0.0 0.00 0.00 0.00 78 1006.6
20260509004528 58 252 0.0 0.0 0.00 0.00 0.00 76 1006.5
20260509003016 58 191 0.0 0.0 0.00 0.00 0.00 74 1006.4
20260509001515 59 211 0.0 0.0 0.00 0.00 0.00 72 1006.4
20260509000023 60 213 0.0 0.0 0.00 0.00 0.00 71 1006.5